Location: ???????
(54.6339°N, 39.4245°E)
Time: 14:36:08
(UTC+00:00)

Cosmos 1703 - Pass Details

Date: 19 May 2025
Orbit: 445 x 453 km, 82.5° (Epoch: 19 June)

Event Time Altitude Azimuth Distance (km) Brightness Sun altitude
Exits shadow 23:47:40 - 186° (S) 1,623 5.2 -8.9°
Reaches altitude 10° 23:47:46 10° 186° (S) 1,581 5.1 -8.9°
Maximum altitude 23:51:12 80° 100° (E) 467 3.0 -8.6°
Drops below altitude 10° 23:54:42 10° 14° (NNE) 1,603 6.9 -8.3°
Sets 23:56:47 0° 13° (NNE) 2,484 8.0 -8.1°
